YAOGAN-7

Last updated on Sun Jul 06 2025 00:02:28 GMT+0000 (Coordinated Universal Time)

1 36110U 09069A 25186.60692811 .00000398 00000+0 63020-4 0 9994 2 36110 98.0529 68.8022 0026243 76.7156 283.6979 14.77447915838441
UTC large
Height (km)
Speed (km/s)
/
Latitude / Longitude
Inclination (degrees)
Orbital Period (minutes)
Azimuth
Elevation
Range (km)
Doppler Factor

Next 0 passes for location: London (51.5072 / 0.1276)

Sorry there are no passes over London.